Flag for U.S.A. Weather past 2 weeks in McAllen, Texas, U.S.A.

Now
72 °F

Passing clouds.


Feels Like: 69 °F
Forecast: 71 / 92 °F
Wind: 14 mph from Southeast

Location: Miller International Airport


UV Index: 7 (High)

Visibility: 10 mi


Pressure: 29.74 "Hg

Humidity: 91%

Dew point: 69 °F

Location of McAllenLocation

Historic Weather in McAllen

°F

McAllen temperature yesterday

Maximum temperature yesterday: 89 °F (at 2:53 PM)
Minimum temperature yesterday: 69 °F (at 5:53 AM)
Average temperature yesterday: 76 °F

Past Weeks' High & Low Weather Summary

 TemperatureHumidityPressure
High90 °F (Apr 13, 3:53 PM)96% (Apr 23, 5:53 AM)30.38 "Hg (Apr 23, 5:53 AM)
Low44 °F (Apr 16, 1:53 AM)16% (Apr 15, 3:53 PM)29.64 "Hg (Apr 13, 5:53 PM)
Average72 °F70%29.98 "Hg
* Reported Apr 9 6:53 AM — Apr 24 6:53 AM, McAllen, Weather by CustomWeather, © 2014

Note: Actual official high and low records may vary slightly from our data, if they occured in-between our weather recording intervals... More about our weather records

Advertising

Historic Weather Conditions — Data for Previous 24 hours

 ConditionsComfort  
Time TempWeatherWind HumidityBarometerVisibility
6:53 AM
Apr 24
72 °FPassing clouds.14 mph91%29.74 "Hg10 mi
5:53 AM72 °FClear.15 mph87%29.72 "Hg10 mi
4:53 AM71 °FClear.16 mph90%29.72 "Hg10 mi
3:53 AM72 °FClear.16 mph87%29.73 "Hg10 mi
2:53 AM72 °FClear.18 mph87%29.75 "Hg10 mi
1:53 AM72 °FClear.14 mph87%29.79 "Hg10 mi
12:53 AM72 °FPassing clouds.15 mph87%29.80 "Hg10 mi
11:53 PM
Apr 23
72 °FClear.12 mph84%29.82 "Hg10 mi
10:53 PM73 °FPassing clouds.13 mph81%29.81 "Hg10 mi
9:53 PM73 °FClear.18 mph79%29.79 "Hg10 mi
8:53 PM75 °FSunny.15 mph71%29.79 "Hg10 mi
7:53 PM78 °FSunny.17 mph54%29.75 "Hg10 mi
6:53 PM81 °FSunny.17 mph49%29.76 "Hg10 mi
5:53 PM83 °FSunny.20 mph51%29.77 "Hg10 mi
4:53 PM85 °FPassing clouds.20 mph51%29.77 "Hg10 mi
3:53 PM88 °FScattered clouds.18 mph50%29.78 "Hg10 mi
2:53 PM89 °FSunny.17 mph46%29.81 "Hg10 mi
1:53 PM87 °FScattered clouds.20 mph50%29.84 "Hg10 mi
12:53 PM81 °FOvercast.17 mph65%29.87 "Hg10 mi
11:53 AM79 °FMostly cloudy.13 mph72%29.89 "Hg10 mi
10:53 AM77 °FOvercast.17 mph77%29.90 "Hg10 mi
9:53 AM75 °FOvercast.13 mph82%29.91 "Hg10 mi
8:53 AM72 °FOvercast.9 mph91%29.91 "Hg10 mi
8:00 AM70 °FOvercast.8 mph94%29.91 "Hg10 mi
Weather by CustomWeather, © 2014

See weather overview